Weather History for Melbourne Airport, VC

Change the Weather History Date:

Wednesday, October 23, 2013

  Actual Average Record
Temperature  
Mean Temperature 54 °F -  
Max Temperature 59 °F 67 °F 84 °F (2011)
Min Temperature 50 °F 47 °F 35 °F (2008)
Degree Days  
Heating Degree Days 10    
Growing Degree Days 4 (Base 50)    
Moisture  
Dew Point 50 °F    
Average Humidity 82    
Maximum Humidity 100    
Minimum Humidity 50    
Precipitation  
Precipitation 0.12 in 0.08 in - ()
Sea Level Pressure  
Sea Level Pressure 29.74 in    
Wind  
Wind Speed 14 mph ()    
Max Wind Speed 30 mph    
Max Gust Speed 43 mph    
Visibility 5.5 miles    
Events Rain    
Averages and records for this station are not official NWS values.
T = Trace of Precipitation, MM = Missing Value Source: Averaged Metar Reports

Daily Weather History Graph

Daily Weather History Graph

Search for Another Location

Airport:

Trip Planner

Search our weather history database for the weather conditions in past years. The results will help you decide how hot, cold, wet, or windy it might be!

Date:

Astronomy

Oct. 23, 2013 Rise Set
Actual Time 6:25 AM AEDT 7:45 PM AEDT
Civil Twilight 5:57 AM AEDT 8:12 PM AEDT
Nautical Twilight 5:25 AM AEDT 8:45 PM AEDT
Astronomical Twilight 4:50 AM AEDT 9:20 PM AEDT
Moon 11:44 PM AEDT (10/23) 9:08 AM AEDT (10/23)
Length of Visible Light 14h 15m
Length of Day
13h 20m
Waning Gibbous, 84% of the Moon is Illuminated
Oct 23
Waning Gibbous
Oct 27
Last Quarter
Nov 3
New
Nov 10
First Quarter
Nov 18
Full

Hourly Weather History & Observations

Time (AEDT) Temp. Dew Point Humidity Pressure Visibility Wind Dir Wind Speed Gust Speed Precip Events Conditions
12:00 AM 59 °F 56 °F 88% 29.60 in 4 mi North 9.2 mph - - Rain Light Rain
12:00 AM 59.0 °F 57.2 °F 94% 29.59 in 3.7 mi North 9.2 mph - N/A Rain Light Rain
12:10 AM 59.0 °F 57.2 °F 94% 29.59 in 6.2 mi North 12.7 mph - N/A Rain Light Rain
12:30 AM 59.0 °F 55.4 °F 88% 29.56 in 5.6 mi North 15.0 mph - N/A Rain Light Rain
1:00 AM 59 °F 56 °F 88% 29.57 in - North 16.1 mph - -  
1:07 AM 59.0 °F 57.2 °F 94% 29.56 in 6.2 mi North 17.3 mph 29.9 mph N/A Rain Light Rain
1:30 AM 59.0 °F 55.4 °F 88% 29.56 in 6.2 mi North 18.4 mph - N/A   Unknown
2:00 AM 58 °F 55 °F 86% 29.55 in - North 13.8 mph - -  
2:00 AM 59.0 °F 55.4 °F 88% 29.53 in - North 13.8 mph - N/A   Clear
2:30 AM 59.0 °F 53.6 °F 82% 29.53 in - North 11.5 mph - N/A   Clear
3:00 AM 58 °F 54 °F 80% 29.54 in 19 mi North 11.5 mph - -   Partly Cloudy
3:00 AM 57.2 °F 53.6 °F 88% 29.53 in - North 11.5 mph - N/A   Clear
3:30 AM 59.0 °F 53.6 °F 82% 29.53 in 6.2 mi North 13.8 mph - N/A   Mostly Cloudy
4:00 AM 57 °F 54 °F 86% 29.54 in - NW 8.1 mph - -  
4:00 AM 57.2 °F 53.6 °F 88% 29.53 in 6.2 mi NW 8.1 mph - N/A Rain Light Rain
4:23 AM 57.2 °F 53.6 °F 88% 29.53 in 3.7 mi NW 11.5 mph - N/A Rain Light Rain
4:30 AM 57.2 °F 53.6 °F 88% 29.53 in 6.2 mi WNW 13.8 mph - N/A Rain Light Rain
4:38 AM 57.2 °F 53.6 °F 88% 29.53 in 3.1 mi WNW 17.3 mph - N/A Rain Light Rain
5:00 AM 56 °F 54 °F 90% 29.55 in - West 9.2 mph - -  
5:00 AM 55.4 °F 53.6 °F 94% 29.53 in 5.6 mi West 9.2 mph - N/A   Light Drizzle
5:07 AM 57.2 °F 53.6 °F 88% 29.53 in 6.2 mi WNW 10.4 mph - N/A   Light Drizzle
5:20 AM 55.4 °F 55.4 °F 100% 29.53 in 3.7 mi West 16.1 mph - N/A   Light Drizzle
5:30 AM 55.4 °F 55.4 °F 100% 29.53 in 4.3 mi West 13.8 mph - N/A   Light Drizzle
5:38 AM 57.2 °F 53.6 °F 88% 29.56 in 4.3 mi West 15.0 mph - N/A   Light Drizzle
5:48 AM 57.2 °F 53.6 °F 88% 29.56 in 3.7 mi West 18.4 mph - N/A   Light Drizzle
6:00 AM 56 °F 54 °F 90% 29.57 in 3 mi West 19.6 mph - - Rain Light Drizzle
6:00 AM 57.2 °F 53.6 °F 88% 29.56 in - West 19.6 mph - N/A   Light Drizzle
6:04 AM 57.2 °F 53.6 °F 88% 29.56 in 3.7 mi WSW 19.6 mph 31.1 mph N/A   Light Drizzle
6:15 AM 57.2 °F 53.6 °F 88% 29.56 in 6.2 mi West 21.9 mph - N/A   Light Drizzle
6:30 AM 57.2 °F 53.6 °F 88% 29.56 in 6.2 mi West 24.2 mph - N/A   Mostly Cloudy
7:00 AM 55 °F 52 °F 86% 29.62 in - West 23.0 mph - -  
7:00 AM 55.4 °F 51.8 °F 88% 29.62 in 6.2 mi West 23.0 mph - N/A   Mostly Cloudy
7:30 AM 55.4 °F 51.8 °F 88% 29.62 in 6.2 mi West 23.0 mph - N/A   Mostly Cloudy
8:00 AM 55 °F 50 °F 78% 29.67 in - West 24.2 mph - -  
8:00 AM 55.4 °F 50.0 °F 82% 29.65 in 6.2 mi West 24.2 mph - N/A   Mostly Cloudy
8:30 AM 55.4 °F 50.0 °F 82% 29.68 in 5.6 mi WSW 29.9 mph - N/A   Light Drizzle
8:40 AM 53.6 °F 50.0 °F 88% 29.68 in 3.7 mi WSW 28.8 mph - N/A   Light Drizzle
9:00 AM 53 °F 52 °F 94% 29.73 in 2 mi WSW 27.6 mph - - Rain Light Rain
9:00 AM 53.6 °F 51.8 °F 94% 29.71 in 2.5 mi WSW 27.6 mph - N/A Rain Light Rain
9:06 AM 53.6 °F 51.8 °F 94% 29.71 in 1.9 mi WSW 26.5 mph 42.6 mph N/A Rain Light Rain
9:30 AM 53.6 °F 51.8 °F 94% 29.74 in 5.0 mi SW 28.8 mph - N/A   Light Drizzle
10:00 AM 54 °F 51 °F 86% 29.78 in - SSW 24.2 mph - -  
10:00 AM 53.6 °F 51.8 °F 94% 29.77 in 6.2 mi SSW 24.2 mph - N/A   Mostly Cloudy
10:28 AM 53.6 °F 51.8 °F 94% 29.80 in 2.5 mi SSW 19.6 mph - N/A Rain Light Rain Showers
10:30 AM 53.6 °F 51.8 °F 94% 29.80 in 3.1 mi SSW 19.6 mph - N/A Rain Light Rain Showers
10:47 AM 55.4 °F 51.8 °F 88% 29.80 in 6.2 mi SSW 19.6 mph 32.2 mph N/A   Mostly Cloudy
11:00 AM 56 °F 52 °F 80% 29.82 in - SSW 18.4 mph - -  
11:00 AM 55.4 °F 51.8 °F 88% 29.80 in 5.0 mi SSW 18.4 mph - N/A   Mostly Cloudy
11:11 AM 55.4 °F 51.8 °F 88% 29.80 in 2.5 mi SSW 17.3 mph - N/A Rain Light Rain Showers
11:30 AM 57.2 °F 53.6 °F 88% 29.83 in 6.2 mi SSW 17.3 mph - N/A   Mostly Cloudy
12:00 PM 58 °F 54 °F 81% 29.83 in 9 mi SSW 16.1 mph - -   Mostly Cloudy
12:00 PM 59.0 °F 53.6 °F 82% 29.83 in 6.2 mi SSW 16.1 mph - N/A   Mostly Cloudy
12:08 PM 57.2 °F 51.8 °F 82% 29.83 in 3.1 mi SW 16.1 mph - N/A Rain Light Rain Showers
12:30 PM 57.2 °F 51.8 °F 82% 29.83 in 6.2 mi SSW 17.3 mph - N/A   Mostly Cloudy
12:49 PM 57.2 °F 51.8 °F 82% 29.83 in 3.1 mi South 17.3 mph - N/A   Mostly Cloudy
1:00 PM 57 °F 52 °F 79% 29.84 in - SSW 13.8 mph - -  
1:00 PM 57.2 °F 51.8 °F 82% 29.83 in 5.6 mi SSW 13.8 mph - N/A   Mostly Cloudy
1:25 PM 55.4 °F 51.8 °F 88% 29.83 in 2.5 mi SSW 15.0 mph - N/A Rain Light Rain Showers
1:30 PM 53.6 °F 53.6 °F 100% 29.83 in 2.5 mi SSW 12.7 mph - N/A Rain Light Rain Showers
2:00 PM 54 °F 52 °F 92% 29.86 in - SSW 15.0 mph - -  
2:00 PM 53.6 °F 51.8 °F 94% 29.86 in 2.5 mi SSW 15.0 mph - N/A Rain Light Rain Showers
2:30 PM 53.6 °F 51.8 °F 94% 29.86 in 5.0 mi SSW 15.0 mph - N/A Rain Light Rain Showers
2:39 PM 53.6 °F 51.8 °F 94% 29.86 in 3.1 mi SSW 15.0 mph - N/A Rain Light Rain Showers
3:00 PM 54 °F 52 °F 92% 29.88 in 3 mi South 9.2 mph - - Rain Light Rain Showers
3:00 PM 53.6 °F 51.8 °F 94% 29.86 in 3.1 mi South 9.2 mph - N/A Rain Light Rain Showers
3:30 PM 53.6 °F 51.8 °F 94% 29.86 in 3.1 mi South 11.5 mph - N/A Rain Light Rain Showers
4:00 PM 54 °F 53 °F 93% 29.88 in - SSW 10.4 mph - -  
4:00 PM 55.4 °F 51.8 °F 88% 29.86 in 3.1 mi SSW 10.4 mph - N/A Rain Light Rain Showers
4:30 PM 53.6 °F 50.0 °F 88% 29.86 in 6.2 mi SW 16.1 mph - N/A   Mostly Cloudy
4:44 PM 51.8 °F 48.2 °F 88% 29.86 in 4.3 mi SW 17.3 mph 34.5 mph N/A Rain Light Rain Showers
5:00 PM 55 °F 49 °F 76% 29.88 in - WSW 16.1 mph - -  
5:00 PM 55.4 °F 50.0 °F 82% 29.86 in 6.2 mi WSW 16.1 mph - N/A   Mostly Cloudy
5:30 PM 57.2 °F 48.2 °F 72% 29.86 in 6.2 mi WSW 13.8 mph - N/A   Mostly Cloudy
6:00 PM 57 °F 46 °F 57% 29.87 in 19 mi WSW 12.7 mph - -   Partly Cloudy
6:00 PM 57.2 °F 46.4 °F 67% 29.86 in 6.2 mi WSW 12.7 mph - N/A   Partly Cloudy
6:30 PM 57.2 °F 42.8 °F 59% 29.86 in 6.2 mi WSW 18.4 mph - N/A   Partly Cloudy
7:00 PM 56 °F 43 °F 52% 29.87 in - WSW 12.7 mph - -  
7:00 PM 57.2 °F 42.8 °F 59% 29.86 in 6.2 mi WSW 12.7 mph - N/A   Partly Cloudy
7:30 PM 55.4 °F 42.8 °F 63% 29.89 in 6.2 mi WSW 10.4 mph - N/A   Scattered Clouds
8:00 PM 54 °F 43 °F 57% 29.90 in - WSW 12.7 mph - -  
8:00 PM 53.6 °F 42.8 °F 67% 29.89 in 6.2 mi WSW 12.7 mph - N/A   Mostly Cloudy
8:30 PM 53.6 °F 42.8 °F 67% 29.89 in 6.2 mi West 12.7 mph - N/A   Mostly Cloudy
9:00 PM 52 °F 40 °F 55% 29.92 in 19 mi WNW 10.4 mph - -   Partly Cloudy
9:00 PM 51.8 °F 41.0 °F 67% 29.92 in - WNW 10.4 mph - N/A   Clear
9:30 PM 51.8 °F 37.4 °F 58% 29.89 in - NNW 9.2 mph - N/A   Clear
10:00 PM 51 °F 38 °F 50% 29.91 in - NNW 9.2 mph - -  
10:00 PM 51.8 °F 37.4 °F 58% 29.89 in - NNW 9.2 mph - N/A   Clear
10:30 PM 50.0 °F 37.4 °F 62% 29.89 in - North 10.4 mph - N/A   Clear
11:00 PM 51 °F 39 °F 53% 29.90 in - North 12.7 mph - -  
11:00 PM 50.0 °F 39.2 °F 66% 29.89 in - North 12.7 mph - N/A   Clear
11:30 PM 53.6 °F 39.2 °F 58% 29.89 in 6.2 mi West 17.3 mph - N/A   Mostly Cloudy
11:56 PM 53.6 °F 41.0 °F 62% 29.92 in 6.2 mi West 17.3 mph 34.5 mph N/A Rain Light Rain Showers